DW1009 Weather Reports


Display with metric or nautical units.
time (UTC)temp
F
wind
direction
speed
MPH
gust
MPH
rain 1hr
in
rain 24hr
in
rain mn
in
humidity
%
barometer
mb
20260505203343 65 207 4.0 11.0 0.00 0.00 0.00 71 1013.1
20260505201343 65 230 4.0 7.0 0.00 0.00 0.00 70 1013.1
20260505200413 65 277 4.0 9.0 0.00 0.00 0.00 70 1013.1
20260505195344 65 283 2.0 9.0 0.00 0.00 0.00 70 1013.1
20260505194344 65 216 6.0 9.0 0.00 0.00 0.00 73 1013.2
20260505193344 65 153 2.0 10.0 0.00 0.00 0.00 73 1013.2
20260505192343 64 188 4.0 9.0 0.00 0.00 0.00 73 1013.4
20260505190343 64 291 2.0 9.0 0.00 0.00 0.00 72 1013.4
20260505185343 64 287 4.0 8.0 0.00 0.00 0.00 73 1013.4
20260505184343 64 236 2.0 9.0 0.00 0.00 0.00 75 1013.4
20260505183413 63 252 5.0 9.0 0.00 0.00 0.00 75 1013.4
20260505182343 63 217 2.0 9.0 0.00 0.00 0.00 76 1013.4
20260505180343 63 340 1.0 9.0 0.00 0.00 0.00 77 1013.2
20260505175343 64 318 3.0 10.0 0.00 0.00 0.00 76 1013.1
20260505173413 63 25 3.0 9.0 0.00 0.00 0.00 79 1012.7
20260505172343 63 279 4.0 8.0 0.00 0.00 0.00 79 1012.6
20260505171343 62 174 0.0 8.0 0.00 0.00 0.00 81 1012.8
20260505170412 62 82 2.0 8.0 0.00 0.00 0.00 82 1012.6
20260505165413 63 273 2.0 9.0 0.00 0.00 0.00 81 1012.5
20260505164343 63 232 4.0 8.0 0.00 0.00 0.00 81 1012.6
20260505163343 62 339 8.0 9.0 0.00 0.00 0.00 83 1012.3
20260505162343 62 194 2.0 7.0 0.00 0.00 0.00 83 1012.2
20260505153343 60 257 2.0 6.0 0.00 0.00 0.00 85 1011.9
20260505152343 60 5 5.0 9.0 0.00 0.00 0.00 87 1011.9
20260505151413 60 288 1.0 7.0 0.00 0.00 0.00 88 1011.8
20260505150413 60 267 1.0 5.0 0.00 0.00 0.00 88 1011.7
20260505140343 58 325 0.0 5.0 0.00 0.00 0.00 90 1011.5
20260505124342 58 336 2.0 8.0 0.00 0.00 0.00 88 1011.6
20260505123342 58 328 1.0 6.0 0.00 0.00 0.00 89 1011.5
20260505121342 58 12 3.0 6.0 0.00 0.00 0.00 88 1011.5
20260505120343 58 239 1.0 7.0 0.00 0.00 0.00 87 1011.5
20260505115342 58 334 1.0 5.0 0.00 0.00 0.00 87 1011.4
20260505114343 58 336 3.0 4.0 0.00 0.00 0.00 86 1011.4
20260505113342 58 338 1.0 4.0 0.00 0.00 0.00 86 1011.3
20260505112342 59 149 1.0 4.0 0.00 0.00 0.00 85 1011.2
20260505111342 59 344 2.0 6.0 0.00 0.00 0.00 85 1011.4
20260505110342 59 26 1.0 4.0 0.00 0.00 0.00 86 1011.4
20260505101342 59 317 2.0 6.0 0.00 0.00 0.00 83 1011.6
20260505100412 59 5 2.0 6.0 0.00 0.00 0.00 82 1011.7
20260505095342 60 350 1.0 8.0 0.00 0.00 0.00 85 1011.6
20260505094342 59 328 2.0 10.0 0.00 0.00 0.00 84 1011.7
20260505093342 60 319 2.0 5.0 0.00 0.00 0.00 86 1011.9
20260505091342 60 321 0.0 6.0 0.00 0.00 0.00 86 1012.0
20260505090343 60 5 2.0 4.0 0.00 0.00 0.00 87 1012.1
20260505085342 60 327 1.0 4.0 0.00 0.00 0.00 87 1012.1
20260505084341 60 322 0.0 3.0 0.00 0.00 0.00 88 1012.1
20260505083342 60 292 2.0 3.0 0.00 0.00 0.00 88 1012.2
20260505082412 60 250 1.0 4.0 0.00 0.00 0.00 88 1012.2
20260505081342 60 329 2.0 4.0 0.00 0.00 0.00 89 1012.3
20260505080412 60 313 2.0 5.0 0.00 0.00 0.00 88 1012.3
20260505075412 60 271 1.0 6.0 0.00 0.00 0.00 88 1012.3
20260505074342 60 333 1.0 6.0 0.00 0.00 0.00 88 1012.5
20260505072341 60 326 1.0 5.0 0.00 0.00 0.00 88 1012.5
20260505071341 60 281 2.0 4.0 0.00 0.00 0.00 88 1012.6
20260505070412 60 328 2.0 3.0 0.00 0.00 0.00 89 1012.6
20260505065341 60 5 1.0 3.0 0.00 0.00 0.00 88 1012.6
20260505063411 60 283 2.0 3.0 0.00 0.00 0.00 88 1012.7
20260505062342 60 269 0.0 3.0 0.00 0.00 0.00 88 1012.7
20260505061412 60 342 1.0 5.0 0.00 0.00 0.00 88 1012.7
20260505060341 60 292 1.0 4.0 0.00 0.00 0.00 88 1012.6
20260505054411 60 13 1.0 4.0 0.00 0.00 0.00 88 1012.9
20260505053341 60 27 0.0 5.0 0.00 0.00 0.00 88 1012.8
20260505052342 60 347 2.0 5.0 0.00 0.00 0.00 88 1013.0
20260505051341 60 331 1.0 3.0 0.00 0.00 0.00 89 1012.8
20260505050341 60 5 3.0 3.0 0.00 0.00 0.00 90 1012.9
20260505035342 60 242 3.0 5.0 0.00 0.00 0.00 89 1013.0
20260505033341 60 219 3.0 5.0 0.00 0.00 0.00 89 1012.9
20260505031341 60 149 1.0 6.0 0.00 0.00 0.00 89 1012.7
20260505030341 60 159 2.0 9.0 0.00 0.00 0.00 89 1012.5
20260505025341 60 261 2.0 7.0 0.00 0.00 0.00 89 1012.5
20260505024342 61 247 2.0 8.0 0.00 0.00 0.00 88 1012.6
20260505023341 61 224 4.0 9.0 0.00 0.00 0.00 87 1012.8
20260505022341 61 238 2.0 8.0 0.00 0.00 0.00 87 1012.9
20260505021411 61 219 2.0 8.0 0.00 0.00 0.00 86 1012.7
20260505020412 62 273 4.0 10.0 0.00 0.00 0.00 85 1012.6
20260505015411 62 254 3.0 10.0 0.00 0.00 0.00 84 1012.4
20260505013341 63 167 0.0 7.0 0.00 0.00 0.00 83 1012.7
20260505012341 63 5 2.0 7.0 0.00 0.00 0.00 84 1012.8
20260505011412 63 309 3.0 11.0 0.00 0.00 0.00 82 1012.7
20260505010411 64 278 4.0 8.0 0.00 0.00 0.00 81 1012.8
20260505005340 63 218 1.0 7.0 0.00 0.00 0.00 81 1012.8
20260505004341 64 304 5.0 7.0 0.00 0.00 0.00 81 1012.8
20260505003412 64 222 6.0 9.0 0.00 0.00 0.00 81 1013.0
20260505002341 64 249 1.0 11.0 0.00 0.00 0.00 82 1013.1
20260505001341 65 223 1.0 7.0 0.00 0.00 0.00 80 1013.1
20260505000340 65 180 1.0 7.0 0.00 0.00 0.00 79 1013.0
20260504235341 65 305 5.0 8.0 0.00 0.00 0.00 80 1012.9
20260504234411 65 215 4.0 9.0 0.00 0.00 0.00 78 1012.8
20260504233340 66 345 2.0 10.0 0.00 0.00 0.00 78 1012.6
20260504232341 66 343 3.0 9.0 0.00 0.00 0.00 77 1012.6
20260504231340 66 317 2.0 11.0 0.00 0.00 0.00 77 1012.6
20260504230411 67 355 5.0 10.0 0.00 0.00 0.00 76 1012.5
20260504224410 67 335 3.0 10.0 0.00 0.00 0.00 75 1013.1
20260504222411 66 294 4.0 12.0 0.00 0.00 0.00 78 1013.3
20260504221411 66 231 1.0 9.0 0.00 0.00 0.00 77 1013.5
20260504220340 66 253 4.0 9.0 0.00 0.00 0.00 78 1013.7
20260504215341 66 319 3.0 9.0 0.00 0.00 0.00 78 1013.7
20260504214340 66 232 4.0 11.0 0.00 0.00 0.00 79 1013.8
20260504212340 66 271 3.0 11.0 0.00 0.00 0.00 79 1014.0
20260504210340 66 236 3.0 10.0 0.00 0.00 0.00 77 1014.1
20260504205341 66 232 4.0 9.0 0.00 0.00 0.00 78 1014.0
20260504204340 66 236 7.0 7.0 0.00 0.00 0.00 78 1014.0